T Black Aviation
T Black Aviation Training School
T Black Aviation Cessna Pilot Center

We Give All FAA, FCC, and NCATT Written Exams

Accelerated Aviation Academics®

Designated Mechanic Examiner (DME) on Premise

RSVP to Grand Opening of Cessna Pilot Center KSPG
Aircraft Electronics Technician (AET) Logo

National Center for Aerospace & Transportation Technologies (NCATT)

One week course now available

T Black Aviation guarantees that if you fail any of the written tests, after completing our course, you may return to our school, up to ten years from the date of the initial course, for additional training (sit in on the current course) until you receive your designated rating.

CATS Testing Center at T Black Aviation

Current METAR for KPIE

KPIE 240912Z AUTO 00000KT 2SM BR BKN012 17/16 A2995 RMK AO2 T01720161

Coming Soon to T Black Aviation